EWG91J EDDK-LOWI

Flight info

Callsign EWG91J
Flight time 0h 52m
Altitude 34000
Route KUMIK8F KUMIK Y854 BOMBI DCT GIGET DCT ABUKA/N0417F310 DCT BATUB M738 MADEB MADEB1B
Aircraft A319/M-SDE3FGHIRWY/LB1

Departure

Time 2026-04-22 17:25
Airport Cologne Bonn Airport (EDDK)

Arrival

Time 2026-04-22 18:17
Airport Innsbruck Airport (LOWI)
Time Latitude Longitude Altitude Speed Heading
2026-04-22 17:04 50.87962 7.12408 232 ft 0 kts 245°
2026-04-22 17:18 50.87963 7.12414 232 ft 2 kts 245°
2026-04-22 17:18 50.87971 7.12440 232 ft 3 kts 246°
2026-04-22 17:18 50.87978 7.12466 236 ft 3 kts 241°
2026-04-22 17:19 50.88007 7.12483 233 ft 3 kts 145°
2026-04-22 17:19 50.88023 7.12463 235 ft 0 kts 138°
2026-04-22 17:20 50.88022 7.12463 235 ft 0 kts 138°
2026-04-22 17:22 50.87980 7.12524 233 ft 11 kts 137°
2026-04-22 17:22 50.87935 7.12625 232 ft 12 kts 72°
2026-04-22 17:22 50.87998 7.12764 237 ft 0 kts 72°
2026-04-22 17:23 50.88008 7.12852 239 ft 11 kts 85°
2026-04-22 17:23 50.87987 7.12986 239 ft 15 kts 125°
2026-04-22 17:24 50.87871 7.13161 239 ft 44 kts 137°
2026-04-22 17:24 50.87477 7.13738 241 ft 108 kts 137°
2026-04-22 17:24 50.86789 7.14732 267 ft 158 kts 137°
2026-04-22 17:24 50.85928 7.15946 714 ft 164 kts 136°
2026-04-22 17:25 50.85076 7.17142 1440 ft 163 kts 136°
2026-04-22 17:25 50.84188 7.18387 1847 ft 181 kts 136°
2026-04-22 17:25 50.83193 7.19785 2177 ft 203 kts 136°
2026-04-22 17:25 50.82137 7.21440 2591 ft 223 kts 124°
2026-04-22 17:26 50.81520 7.23758 3039 ft 244 kts 97°
2026-04-22 17:26 50.81321 7.26485 3891 ft 253 kts 96°
2026-04-22 17:26 50.81085 7.29257 4927 ft 256 kts 97°
2026-04-22 17:26 50.80828 7.32079 5688 ft 262 kts 97°
2026-04-22 17:27 50.80562 7.34931 5942 ft 263 kts 98°
2026-04-22 17:27 50.80297 7.37802 6118 ft 267 kts 98°
2026-04-22 17:27 50.80036 7.40693 7074 ft 267 kts 97°
2026-04-22 17:27 50.79776 7.43611 7986 ft 269 kts 97°
2026-04-22 17:28 50.79514 7.46551 8919 ft 271 kts 97°
2026-04-22 17:28 50.79251 7.49476 9815 ft 274 kts 96°
2026-04-22 17:28 50.78980 7.52488 10541 ft 284 kts 96°
2026-04-22 17:28 50.78695 7.55707 10841 ft 306 kts 96°
2026-04-22 17:29 50.78491 7.59106 11447 ft 314 kts 88°
2026-04-22 17:29 50.78720 7.62542 12194 ft 317 kts 78°
2026-04-22 17:29 50.79098 7.65987 12985 ft 320 kts 82°
2026-04-22 17:29 50.78947 7.69526 13725 ft 329 kts 102°
2026-04-22 17:30 50.77969 7.72780 14426 ft 339 kts 123°
2026-04-22 17:30 50.76176 7.75322 15097 ft 351 kts 146°
2026-04-22 17:30 50.73994 7.77013 15774 ft 356 kts 152°
2026-04-22 17:30 50.71736 7.78662 16440 ft 359 kts 152°
2026-04-22 17:31 50.69454 7.80316 17092 ft 363 kts 152°
2026-04-22 17:31 50.67147 7.81988 17750 ft 367 kts 151°
2026-04-22 17:31 50.64817 7.83681 18407 ft 370 kts 151°
2026-04-22 17:31 50.62468 7.85389 19007 ft 374 kts 151°
2026-04-22 17:32 50.60095 7.87116 19590 ft 377 kts 151°
2026-04-22 17:32 50.57707 7.88858 20183 ft 380 kts 151°
2026-04-22 17:32 50.55336 7.90586 20764 ft 383 kts 151°
2026-04-22 17:32 50.52906 7.92356 21353 ft 386 kts 151°
2026-04-22 17:33 50.51258 7.93556 21747 ft 388 kts 151°
2026-04-22 17:33 50.47995 7.95937 22487 ft 392 kts 151°
2026-04-22 17:33 50.45512 7.97748 23030 ft 395 kts 152°
2026-04-22 17:33 50.43002 7.99571 23606 ft 399 kts 152°
2026-04-22 17:34 50.40476 8.01402 24110 ft 402 kts 152°
2026-04-22 17:34 50.37932 8.03243 24548 ft 405 kts 152°
2026-04-22 17:34 50.35397 8.05070 24978 ft 408 kts 152°
2026-04-22 17:34 50.32800 8.06936 25388 ft 412 kts 152°
2026-04-22 17:35 50.30187 8.08812 25807 ft 415 kts 152°
2026-04-22 17:35 50.27551 8.10703 26226 ft 419 kts 152°
2026-04-22 17:35 50.24895 8.12611 26630 ft 422 kts 152°
2026-04-22 17:35 50.22217 8.14539 27043 ft 425 kts 152°
2026-04-22 17:36 50.19521 8.16480 27437 ft 429 kts 152°
2026-04-22 17:36 50.16804 8.18431 27837 ft 432 kts 153°
2026-04-22 17:36 50.14058 8.20398 28241 ft 435 kts 153°
2026-04-22 17:36 50.11332 8.22344 28636 ft 439 kts 153°
2026-04-22 17:37 50.08546 8.24326 29016 ft 442 kts 153°
2026-04-22 17:37 50.05736 8.26319 29397 ft 445 kts 153°
2026-04-22 17:37 50.02910 8.28321 29775 ft 449 kts 153°
2026-04-22 17:37 50.00054 8.30346 30146 ft 452 kts 153°
2026-04-22 17:38 49.97187 8.32385 30485 ft 455 kts 153°
2026-04-22 17:38 49.94295 8.34443 30791 ft 458 kts 153°
2026-04-22 17:38 49.91387 8.36510 31089 ft 461 kts 153°
2026-04-22 17:38 49.88461 8.38583 31388 ft 463 kts 153°
2026-04-22 17:39 49.85562 8.40630 31670 ft 466 kts 153°
2026-04-22 17:39 49.82602 8.42715 31965 ft 468 kts 153°
2026-04-22 17:39 49.76680 8.46875 32784 ft 467 kts 153°
2026-04-22 17:40 49.73724 8.48948 33153 ft 467 kts 153°
2026-04-22 17:40 49.70765 8.51021 33269 ft 463 kts 153°
2026-04-22 17:40 49.67870 8.53040 33280 ft 452 kts 153°
2026-04-22 17:41 49.62198 8.56993 33277 ft 445 kts 153°
2026-04-22 17:41 49.56604 8.60903 33274 ft 444 kts 153°
2026-04-22 17:42 49.50979 8.64832 33274 ft 444 kts 153°
2026-04-22 17:42 49.46240 8.68129 33277 ft 457 kts 154°
2026-04-22 17:42 49.42282 8.70747 33280 ft 469 kts 155°
2026-04-22 17:43 49.39232 8.72663 33275 ft 477 kts 156°
2026-04-22 17:43 49.33073 8.76429 33275 ft 481 kts 156°
2026-04-22 17:44 49.26859 8.80251 33271 ft 482 kts 156°
2026-04-22 17:44 49.20652 8.84134 33268 ft 482 kts 156°
2026-04-22 17:45 49.14442 8.88026 33263 ft 482 kts 156°
2026-04-22 17:45 49.08231 8.91893 33254 ft 482 kts 156°
2026-04-22 17:46 49.02058 8.95709 33247 ft 482 kts 156°
2026-04-22 17:46 48.95852 8.99548 33241 ft 482 kts 156°
2026-04-22 17:47 48.89639 9.03385 33235 ft 482 kts 156°
2026-04-22 17:47 48.83423 9.07204 33232 ft 482 kts 156°
2026-04-22 17:48 48.78256 9.10369 33230 ft 482 kts 156°
2026-04-22 17:48 48.71020 9.14787 33228 ft 482 kts 156°
2026-04-22 17:49 48.64792 9.18588 33228 ft 483 kts 156°
2026-04-22 17:49 48.58561 9.22379 33232 ft 483 kts 156°
2026-04-22 17:50 48.52322 9.26164 33228 ft 483 kts 157°
2026-04-22 17:50 48.46128 9.29918 33226 ft 483 kts 156°
2026-04-22 17:51 48.39879 9.33694 33233 ft 483 kts 157°
2026-04-22 17:51 48.33633 9.37441 33225 ft 484 kts 157°
2026-04-22 17:51 48.30513 9.39311 33009 ft 484 kts 157°
2026-04-22 17:52 48.27397 9.41180 32730 ft 480 kts 157°
2026-04-22 17:52 48.24305 9.43033 32463 ft 478 kts 157°
2026-04-22 17:52 48.21260 9.44856 31975 ft 476 kts 157°
2026-04-22 17:52 48.18199 9.46689 31484 ft 472 kts 157°
2026-04-22 17:53 48.15161 9.48506 30991 ft 469 kts 157°
2026-04-22 17:53 48.12144 9.50305 30512 ft 465 kts 158°
2026-04-22 17:53 48.09144 9.52090 29993 ft 462 kts 158°
2026-04-22 17:53 48.06169 9.53856 29553 ft 458 kts 158°
2026-04-22 17:54 48.03235 9.55631 29100 ft 453 kts 154°
2026-04-22 17:54 48.00507 9.57926 28684 ft 447 kts 143°
2026-04-22 17:54 47.97999 9.60644 28274 ft 444 kts 142°
2026-04-22 17:54 47.95506 9.63346 27861 ft 441 kts 142°
2026-04-22 17:55 47.93866 9.65117 27580 ft 439 kts 142°
2026-04-22 17:55 47.90608 9.68626 27036 ft 434 kts 142°
2026-04-22 17:55 47.88170 9.71247 26622 ft 431 kts 142°
2026-04-22 17:55 47.85745 9.73855 26205 ft 428 kts 142°
2026-04-22 17:56 47.83343 9.76440 25786 ft 425 kts 142°
2026-04-22 17:56 47.80957 9.79002 25357 ft 422 kts 142°
2026-04-22 17:56 47.78587 9.81540 24913 ft 418 kts 142°
2026-04-22 17:56 47.76232 9.84059 24483 ft 416 kts 142°
2026-04-22 17:57 47.73891 9.86562 24047 ft 413 kts 142°
2026-04-22 17:57 47.71601 9.89013 23579 ft 410 kts 142°
2026-04-22 17:57 47.70043 9.90682 23271 ft 408 kts 142°
2026-04-22 17:57 47.67029 9.93907 22418 ft 401 kts 142°
2026-04-22 17:58 47.64777 9.96309 21976 ft 397 kts 142°
2026-04-22 17:58 47.62542 9.98687 21509 ft 394 kts 142°
2026-04-22 17:58 47.60325 10.01044 21033 ft 390 kts 142°
2026-04-22 17:58 47.58128 10.03380 20565 ft 387 kts 142°
2026-04-22 17:59 47.56686 10.04909 20255 ft 385 kts 142°
2026-04-22 17:59 47.54513 10.07214 19797 ft 382 kts 142°
2026-04-22 17:59 47.52363 10.09492 19337 ft 379 kts 142°
2026-04-22 17:59 47.49553 10.12460 18440 ft 372 kts 142°
2026-04-22 18:00 47.48135 10.13940 17870 ft 369 kts 144°
2026-04-22 18:00 47.45899 10.15640 17596 ft 351 kts 154°
2026-04-22 18:00 47.43134 10.17482 17416 ft 325 kts 154°
2026-04-22 18:00 47.41764 10.18385 17306 ft 313 kts 154°
2026-04-22 18:01 47.39808 10.19674 16916 ft 303 kts 154°
2026-04-22 18:01 47.37935 10.20895 16531 ft 294 kts 154°
2026-04-22 18:01 47.36091 10.22088 16145 ft 286 kts 154°
2026-04-22 18:01 47.34291 10.23247 15758 ft 279 kts 154°
2026-04-22 18:02 47.32533 10.24372 15384 ft 273 kts 154°
2026-04-22 18:02 47.30822 10.25462 15185 ft 261 kts 154°
2026-04-22 18:02 47.29159 10.26514 15207 ft 259 kts 154°
2026-04-22 18:02 47.27507 10.27572 15197 ft 258 kts 152°
2026-04-22 18:03 47.26083 10.29092 14997 ft 251 kts 127°
2026-04-22 18:03 47.25245 10.31280 14645 ft 244 kts 102°
2026-04-22 18:03 47.25095 10.33681 14350 ft 237 kts 80°
2026-04-22 18:03 47.25428 10.36039 14082 ft 235 kts 75°
2026-04-22 18:04 47.25785 10.38384 13769 ft 234 kts 75°
2026-04-22 18:04 47.26136 10.40721 13470 ft 233 kts 76°
2026-04-22 18:04 47.26482 10.43048 13145 ft 232 kts 76°
2026-04-22 18:04 47.26822 10.45341 12998 ft 224 kts 76°
2026-04-22 18:05 47.27143 10.47510 13004 ft 211 kts 76°
2026-04-22 18:05 47.27452 10.49600 13019 ft 209 kts 76°
2026-04-22 18:05 47.27762 10.51688 13006 ft 208 kts 76°
2026-04-22 18:05 47.28072 10.53761 13004 ft 207 kts 76°
2026-04-22 18:06 47.28377 10.55803 13010 ft 207 kts 76°
2026-04-22 18:06 47.28602 10.57899 13002 ft 208 kts 83°
2026-04-22 18:06 47.28684 10.60027 13009 ft 208 kts 84°
2026-04-22 18:06 47.28768 10.62148 13009 ft 207 kts 84°
2026-04-22 18:07 47.28854 10.64268 13014 ft 208 kts 84°
2026-04-22 18:07 47.28940 10.66391 13016 ft 207 kts 84°
2026-04-22 18:07 47.29026 10.68510 12962 ft 209 kts 84°
2026-04-22 18:07 47.29113 10.70672 12424 ft 212 kts 84°
2026-04-22 18:08 47.29197 10.72818 11979 ft 209 kts 84°
2026-04-22 18:08 47.29279 10.74902 11603 ft 204 kts 84°
2026-04-22 18:08 47.29362 10.76965 11495 ft 202 kts 85°
2026-04-22 18:08 47.29447 10.79044 11285 ft 203 kts 84°
2026-04-22 18:09 47.29531 10.81128 10914 ft 207 kts 85°
2026-04-22 18:09 47.29615 10.83258 10502 ft 208 kts 85°
2026-04-22 18:09 47.29699 10.85384 10048 ft 210 kts 85°
2026-04-22 18:09 47.29781 10.87541 9652 ft 207 kts 85°
2026-04-22 18:10 47.29855 10.89550 9265 ft 207 kts 85°
2026-04-22 18:10 47.29936 10.91652 8937 ft 203 kts 85°
2026-04-22 18:10 47.30016 10.93697 8651 ft 197 kts 85°
2026-04-22 18:10 47.30094 10.95698 8386 ft 195 kts 85°
2026-04-22 18:11 47.30169 10.97688 8098 ft 194 kts 85°
2026-04-22 18:11 47.30240 10.99670 7767 ft 193 kts 85°
2026-04-22 18:11 47.30310 11.01610 7448 ft 192 kts 86°
2026-04-22 18:11 47.30382 11.03572 7132 ft 191 kts 86°
2026-04-22 18:12 47.30349 11.05528 6810 ft 191 kts 94°
2026-04-22 18:12 47.30335 11.07477 6474 ft 190 kts 90°
2026-04-22 18:12 47.29987 11.09351 6083 ft 192 kts 111°
2026-04-22 18:12 47.29492 11.11165 5686 ft 190 kts 108°
2026-04-22 18:13 47.29040 11.12990 5364 ft 189 kts 107°
2026-04-22 18:13 47.28587 11.14793 5061 ft 186 kts 109°
2026-04-22 18:13 47.28136 11.16507 4911 ft 174 kts 109°
2026-04-22 18:13 47.27691 11.18141 4738 ft 170 kts 110°
2026-04-22 18:14 47.27251 11.19724 4503 ft 169 kts 110°
2026-04-22 18:14 47.26836 11.21326 4254 ft 162 kts 107°
2026-04-22 18:14 47.26506 11.22802 4085 ft 146 kts 106°
2026-04-22 18:14 47.26193 11.24186 3814 ft 140 kts 107°
2026-04-22 18:15 47.25899 11.25533 3499 ft 136 kts 104°
2026-04-22 18:15 47.25716 11.26901 3231 ft 136 kts 98°
2026-04-22 18:15 47.25579 11.28270 2968 ft 135 kts 94°
2026-04-22 18:15 47.25555 11.29640 2652 ft 131 kts 86°
2026-04-22 18:16 47.25663 11.30959 2407 ft 129 kts 82°
2026-04-22 18:16 47.25791 11.32260 2106 ft 127 kts 81°
2026-04-22 18:16 47.25927 11.33513 1922 ft 119 kts 81°
2026-04-22 18:16 47.26027 11.34439 1905 ft 52 kts 81°
2026-04-22 18:17 47.26072 11.34856 1906 ft 43 kts 81°
2026-04-22 18:17 47.26097 11.35237 1905 ft 20 kts 123°
2026-04-22 18:17 47.25976 11.35279 1905 ft 6 kts 170°
2026-04-22 18:17 47.25962 11.35282 1897 ft 0 kts 171°
2026-04-22 18:18 47.25958 11.35283 1899 ft 4 kts 171°
2026-04-22 18:18 47.25925 11.35288 1907 ft 5 kts 182°
2026-04-22 18:19 47.25901 11.35254 1904 ft 5 kts 245°
2026-04-22 18:19 47.25892 11.35194 1899 ft 7 kts 261°
2026-04-22 18:19 47.25885 11.35118 1907 ft 3 kts 262°
2026-04-22 18:19 47.25865 11.35102 1903 ft 5 kts 188°
2026-04-22 18:20 47.25845 11.35106 1907 ft 1 kts 169°
2026-04-22 18:20 47.25830 11.35110 1899 ft 2 kts 170°
2026-04-22 18:20 47.25825 11.35111 1902 ft 0 kts 171°